GW1480 Weather Reports


Display with metric or nautical units.
time (UTC)temp
F
wind
direction
speed
MPH
gust
MPH
rain 1hr
in
rain 24hr
in
rain mn
in
humidity
%
barometer
mb
20260902110317 66 226 0.0 0.0 0.00 0.00 0.00 99 1018.9
20260902105722 66 216 0.0 0.0 0.00 0.00 0.00 99 1018.9
20260902105120 66 233 0.0 0.0 0.00 0.00 0.00 99 1018.9
20260902104535 66 230 0.0 0.0 0.00 0.00 0.00 99 1019.3
20260902103327 66 236 0.0 0.0 0.00 0.00 0.00 99 1018.9
20260902101523 66 234 0.0 0.0 0.00 0.00 0.00 99 1018.9
20260902100905 66 234 0.0 0.0 0.00 0.00 0.00 99 1019.3
20260902100346 67 237 0.0 0.0 0.00 0.00 0.00 99 1018.9
20260902095748 67 238 0.0 0.0 0.00 0.00 0.00 99 1019.3
20260902095132 67 238 0.0 0.0 0.00 0.00 0.00 99 1018.9
20260902094531 67 236 0.0 0.0 0.00 0.00 0.00 99 1018.9
20260902093304 67 236 0.0 0.0 0.00 0.00 0.00 99 1018.9
20260902092739 67 236 0.0 0.0 0.00 0.00 0.00 99 1018.9
20260902092147 67 236 0.0 0.0 0.00 0.00 0.00 99 1018.9
20260902091507 67 238 0.0 0.0 0.00 0.00 0.00 99 1018.9
20260902090925 67 235 0.0 0.0 0.00 0.00 0.00 99 1018.9
20260902090321 68 235 0.0 0.0 0.00 0.00 0.00 99 1018.9
20260902085744 68 235 0.0 0.0 0.00 0.00 0.00 99 1018.6
20260902085148 68 236 0.0 0.0 0.00 0.00 0.00 99 1018.9
20260902084508 68 234 0.0 0.0 0.00 0.00 0.00 99 1018.6
20260902083909 68 239 0.0 0.0 0.00 0.00 0.00 99 1018.6
20260902082108 68 230 0.0 0.0 0.00 0.00 0.00 99 1018.6
20260902081539 68 230 0.0 0.0 0.00 0.00 0.00 99 1018.6
20260902080323 68 243 0.0 0.0 0.00 0.00 0.00 99 1018.6
20260902075708 68 234 0.0 0.0 0.00 0.00 0.00 99 1018.2
20260902075114 69 237 0.0 0.0 0.00 0.00 0.00 99 1018.6
20260902074519 69 226 0.0 0.0 0.00 0.00 0.00 99 1018.6
20260902073915 69 234 0.0 0.0 0.00 0.00 0.00 99 1018.2
20260902073306 69 234 0.0 0.0 0.00 0.00 0.00 99 1018.6
20260902072722 69 234 0.0 0.0 0.00 0.00 0.00 99 1018.6
20260902072145 69 236 0.0 0.0 0.00 0.00 0.00 99 1018.6
20260902070909 68 234 0.0 0.0 0.00 0.00 0.00 99 1018.6
20260902065706 68 229 0.0 0.0 0.00 0.00 0.00 99 1018.6
20260902065138 68 230 0.0 0.0 0.00 0.00 0.00 99 1018.2
20260902064506 68 232 0.0 0.0 0.00 0.00 0.00 99 1018.6
20260902063946 68 238 0.0 0.0 0.00 0.00 0.00 99 1018.6
20260902063330 68 236 0.0 0.0 0.00 0.00 0.00 99 1018.6
20260902060909 69 237 0.0 0.0 0.00 0.00 0.00 99 1018.6
20260902060343 69 235 0.0 0.0 0.00 0.00 0.00 99 1018.6
20260902055714 69 235 0.0 0.0 0.00 0.00 0.00 99 1018.6
20260902055125 69 235 0.0 0.0 0.00 0.00 0.00 99 1018.2
20260902054536 69 235 0.0 0.0 0.00 0.00 0.00 99 1018.6
20260902053929 69 235 0.0 0.0 0.00 0.00 0.00 99 1018.2
20260902053338 69 238 0.0 0.0 0.00 0.00 0.00 99 1018.2
20260902052123 69 230 0.0 0.0 0.00 0.00 0.00 99 1018.2
20260902051511 69 224 0.0 0.0 0.00 0.00 0.00 99 1018.2
20260902050907 69 232 0.0 0.0 0.00 0.00 0.00 99 1017.9
20260902050320 70 233 0.0 0.0 0.00 0.00 0.00 99 1018.2
20260902045729 70 234 0.0 0.0 0.00 0.00 0.00 99 1018.2
20260902045115 70 245 0.0 0.0 0.00 0.00 0.00 99 1018.2
20260902043942 70 234 0.0 0.0 0.00 0.00 0.00 99 1017.9
20260902043349 70 230 0.0 0.0 0.00 0.00 0.00 99 1018.2
20260902042748 70 236 0.0 0.0 0.00 0.00 0.00 99 1017.9
20260902042144 70 235 0.0 0.0 0.00 0.00 0.00 99 1017.9
20260902041539 70 233 0.0 0.0 0.00 0.00 0.00 99 1017.9
20260902040933 70 228 0.0 0.0 0.00 0.00 0.00 99 1017.9
20260902040333 70 230 0.0 0.0 0.00 0.00 0.00 99 1018.2
20260902035715 70 228 0.0 0.0 0.00 0.00 0.00 99 1017.9
20260902035111 70 232 0.0 0.0 0.00 0.00 0.00 99 1017.9
20260902034505 70 234 0.0 0.0 0.00 0.00 0.00 99 1018.2
20260902033906 70 234 0.0 0.0 0.00 0.00 0.00 99 1018.2
20260902033323 71 234 0.0 0.0 0.00 0.00 0.00 99 1017.9
20260902032117 71 236 0.0 0.0 0.00 0.00 0.00 99 1017.9
20260902031530 71 234 0.0 0.0 0.00 0.00 0.00 99 1017.9
20260902030914 71 236 0.0 0.0 0.00 0.00 0.00 99 1017.9
20260902025726 72 236 0.0 0.0 0.00 0.00 0.00 99 1017.9
20260902025144 72 236 0.0 0.0 0.00 0.00 0.00 99 1017.9
20260902024536 72 236 0.0 0.0 0.00 0.00 0.00 99 1017.9
20260902023948 72 237 0.0 0.0 0.00 0.00 0.00 99 1017.9
20260902023349 72 242 0.0 0.0 0.00 0.00 0.00 99 1017.9
20260902022717 72 233 0.0 0.0 0.00 0.00 0.00 99 1018.2
20260902022119 72 233 0.0 0.0 0.00 0.00 0.00 99 1017.9
20260902020938 72 222 0.0 0.0 0.00 0.00 0.00 99 1018.2
20260902020310 72 226 0.0 0.0 0.00 0.00 0.00 99 1017.9
20260902015123 72 234 0.0 0.0 0.00 0.00 0.00 99 1017.9
20260902014507 73 221 0.0 0.0 0.00 0.00 0.00 99 1017.6
20260902013906 73 233 0.0 0.0 0.00 0.00 0.00 99 1017.9
20260902013337 73 228 0.0 0.0 0.00 0.00 0.00 99 1017.9
20260902012738 73 234 0.0 0.0 0.00 0.00 0.00 99 1017.9
20260902012124 73 234 0.0 0.0 0.00 0.00 0.00 99 1017.9
20260902011532 74 234 0.0 0.0 0.00 0.00 0.00 99 1017.9
20260902010942 74 230 0.0 0.0 0.00 0.00 0.00 99 1017.6
20260902010322 74 230 0.0 0.0 0.00 0.00 0.00 99 1017.6
20260902005741 74 234 0.0 0.0 0.00 0.00 0.00 99 1017.6
20260902005121 74 234 0.0 0.0 0.00 0.00 0.00 99 1017.2
20260902004519 75 233 0.0 0.0 0.00 0.00 0.00 99 1017.2
20260902003908 75 233 0.0 0.0 0.00 0.00 0.00 99 1017.2
20260902003349 75 230 0.0 0.0 0.00 0.00 0.00 99 1017.2
20260902002718 76 232 0.0 0.0 0.00 0.00 0.00 99 1017.2
20260902002122 76 230 0.0 0.0 0.00 0.00 0.00 99 1017.6
20260902001528 76 229 0.0 0.0 0.00 0.00 0.00 99 1017.2
20260902000948 76 229 0.0 0.0 0.00 0.00 0.00 99 1017.2
20260902000315 76 234 0.0 0.0 0.00 0.00 0.00 99 1017.6
20260901235712 77 235 0.0 0.0 0.00 0.00 0.00 99 1017.2
20260901235130 77 235 0.0 0.0 0.00 0.00 0.00 99 1017.2
20260901234506 77 234 0.0 0.0 0.00 0.00 0.00 99 1017.2
20260901233934 78 234 0.0 0.0 0.00 0.00 0.00 98 1017.2
20260901233312 78 245 0.0 0.0 0.00 0.00 0.00 98 1017.2
20260901232707 78 243 0.0 0.0 0.00 0.00 0.00 97 1017.2
20260901232113 79 241 0.0 0.0 0.00 0.00 0.00 97 1017.2
20260901230931 80 237 0.0 0.0 0.00 0.00 0.00 95 1016.9
20260901225719 82 241 0.0 0.0 0.00 0.00 0.00 94 1017.2
20260901225118 83 255 0.0 0.0 0.00 0.00 0.00 93 1017.2
20260901224541 84 238 0.0 0.0 0.00 0.00 0.00 89 1017.2
20260901223905 85 250 0.0 0.0 0.00 0.00 0.00 87 1017.2
20260901222744 86 252 0.0 0.0 0.00 0.00 0.00 85 1017.2
20260901222123 87 245 0.0 0.0 0.00 0.00 0.00 83 1017.2
20260901221519 87 247 0.0 0.0 0.00 0.00 0.00 83 1017.2
20260901220937 87 255 0.0 0.0 0.00 0.00 0.00 82 1017.2
20260901220314 88 256 0.0 0.0 0.00 0.00 0.00 81 1017.6
20260901215708 88 259 0.0 0.0 0.00 0.00 0.00 81 1017.6
20260901215141 88 256 0.0 0.0 0.00 0.00 0.00 81 1017.6
20260901213934 89 235 0.0 0.0 0.00 0.00 0.00 83 1017.6
20260901213334 90 248 0.0 0.0 0.00 0.00 0.00 80 1017.6
20260901212705 90 254 0.0 0.0 0.00 0.00 0.00 81 1017.9
20260901211508 92 241 0.0 0.0 0.00 0.00 0.00 80 1017.9
20260901210914 92 223 0.0 0.0 0.00 0.00 0.00 79 1017.9
20260901210320 92 271 0.0 0.0 0.00 0.00 0.00 69 1017.9
20260901205735 92 133 0.0 2.0 0.00 0.00 0.00 65 1017.9
20260901205142 91 223 0.0 0.0 0.00 0.00 0.00 66 1017.9
20260901204528 91 250 0.0 0.0 0.00 0.00 0.00 72 1017.9
20260901203922 91 218 0.0 0.0 0.00 0.00 0.00 72 1017.9
20260901203314 91 237 0.0 0.0 0.00 0.00 0.00 71 1018.2
20260901202136 89 221 0.0 0.0 0.00 0.00 0.00 72 1017.9
20260901201524 88 219 0.0 0.0 0.00 0.00 0.00 74 1018.2
20260901200908 86 238 0.0 0.0 0.00 0.00 0.00 72 1018.2
20260901200323 85 224 0.0 0.0 0.00 0.00 0.00 78 1018.2
20260901195747 84 233 0.0 0.0 0.00 0.00 0.00 85 1018.2
20260901195146 84 255 0.0 0.0 0.00 0.00 0.00 86 1018.6
20260901194511 84 246 0.0 0.0 0.00 0.00 0.00 86 1018.6
20260901193915 85 230 0.0 0.0 0.00 0.00 0.00 87 1018.6
20260901193312 86 245 0.0 0.0 0.00 0.00 0.00 86 1018.6
20260901192710 87 245 0.0 0.0 0.00 0.00 0.00 85 1018.6
20260901191529 90 226 0.0 0.0 0.00 0.00 0.00 80 1018.6
20260901190909 91 255 0.0 0.0 0.00 0.00 0.00 82 1018.6
20260901190310 92 240 0.0 2.0 0.00 0.00 0.00 76 1018.6
20260901185716 92 245 0.0 0.0 0.00 0.00 0.00 64 1018.9
20260901185125 92 354 4.0 5.0 0.00 0.00 0.00 57 1018.6
20260901184513 92 229 0.0 0.0 0.00 0.00 0.00 66 1018.6
20260901183945 91 270 0.0 0.0 0.00 0.00 0.00 62 1018.6
20260901183325 91 215 3.0 5.0 0.00 0.00 0.00 67 1018.9
20260901182718 90 308 1.0 2.0 0.00 0.00 0.00 63 1018.9
20260901182138 90 243 2.0 2.0 0.00 0.00 0.00 65 1019.3
20260901180914 89 91 1.0 2.0 0.00 0.00 0.00 66 1019.3
20260901180342 89 226 0.0 0.0 0.00 0.00 0.00 67 1019.3
20260901175128 90 223 4.0 7.0 0.00 0.00 0.00 71 1019.3
20260901174519 90 241 4.0 5.0 0.00 0.00 0.00 67 1019.3
20260901173942 90 219 3.0 5.0 0.00 0.00 0.00 69 1019.6
20260901173345 90 243 2.0 5.0 0.00 0.00 0.00 70 1019.6
20260901172735 90 216 1.0 2.0 0.00 0.00 0.00 70 1019.6
20260901171514 89 237 5.0 7.0 0.00 0.00 0.00 69 1019.6
20260901170924 89 74 0.0 0.0 0.00 0.00 0.00 68 1019.6
20260901170319 89 215 0.0 2.0 0.00 0.00 0.00 70 1019.6
20260901165707 89 276 0.0 0.0 0.00 0.00 0.00 70 1019.9
20260901165116 88 203 0.0 0.0 0.00 0.00 0.00 71 1019.9
20260901164521 88 301 2.0 5.0 0.00 0.00 0.00 70 1019.6
20260901163939 88 229 0.0 0.0 0.00 0.00 0.00 72 1019.9
20260901163326 88 358 6.0 10.0 0.00 0.00 0.00 73 1019.6
20260901162727 88 334 3.0 5.0 0.00 0.00 0.00 73 1019.9
20260901162125 88 302 1.0 2.0 0.00 0.00 0.00 74 1019.6
20260901161512 88 293 1.0 5.0 0.00 0.00 0.00 73 1019.6
20260901160937 88 232 0.0 0.0 0.00 0.00 0.00 74 1019.6
20260901160344 87 272 0.0 0.0 0.00 0.00 0.00 75 1019.6
20260901155738 87 232 3.0 5.0 0.00 0.00 0.00 75 1019.6
20260901155108 87 221 0.0 0.0 0.00 0.00 0.00 80 1019.9
20260901154540 86 281 0.0 0.0 0.00 0.00 0.00 77 1019.6
20260901153951 86 285 0.0 0.0 0.00 0.00 0.00 75 1019.6
20260901152708 86 61 0.0 0.0 0.00 0.00 0.00 78 1019.9
20260901151536 86 235 0.0 2.0 0.00 0.00 0.00 82 1020.3
20260901150347 85 240 1.0 2.0 0.00 0.00 0.00 78 1019.9
20260901145129 84 226 0.0 0.0 0.00 0.00 0.00 79 1019.9
20260901143932 83 329 0.0 0.0 0.00 0.00 0.00 78 1019.9
20260901143331 83 204 1.0 2.0 0.00 0.00 0.00 84 1019.9
20260901142146 83 177 0.0 0.0 0.00 0.00 0.00 84 1019.9
20260901141522 82 255 3.0 5.0 0.00 0.00 0.00 84 1019.6
20260901140918 82 276 1.0 2.0 0.00 0.00 0.00 83 1019.9
20260901140326 82 10 2.0 5.0 0.00 0.00 0.00 83 1019.9
20260901135741 82 234 2.0 2.0 0.00 0.00 0.00 87 1019.9
20260901133348 78 159 1.0 2.0 0.00 0.00 0.00 85 1019.6
20260901132707 77 212 0.0 0.0 0.00 0.00 0.00 90 1020.3
20260901131519 75 196 0.0 0.0 0.00 0.00 0.00 97 1020.3
20260901130326 73 131 0.0 0.0 0.00 0.00 0.00 99 1019.9
20260901125711 72 205 0.0 0.0 0.00 0.00 0.00 99 1019.9
20260901125114 72 235 0.0 0.0 0.00 0.00 0.00 99 1020.3
20260901124529 71 225 0.0 0.0 0.00 0.00 0.00 99 1020.3
20260901123317 70 230 0.0 0.0 0.00 0.00 0.00 99 1020.3
20260901122721 69 230 0.0 0.0 0.00 0.00 0.00 99 1020.3
20260901122121 69 222 0.0 0.0 0.00 0.00 0.00 99 1020.3
20260901121534 68 238 0.0 0.0 0.00 0.00 0.00 99 1020.3
20260901120934 68 234 0.0 0.0 0.00 0.00 0.00 99 1019.9
20260901120343 68 234 0.0 0.0 0.00 0.00 0.00 99 1020.3
20260901115106 68 230 0.0 0.0 0.00 0.00 0.00 99 1019.9
20260901113931 68 234 0.0 0.0 0.00 0.00 0.00 99 1019.6
20260901113327 68 235 0.0 0.0 0.00 0.00 0.00 99 1019.6
20260901112749 68 235 0.0 0.0 0.00 0.00 0.00 99 1019.6
20260901112143 68 234 0.0 0.0 0.00 0.00 0.00 99 1019.6
20260901111522 67 229 0.0 0.0 0.00 0.00 0.00 99 1019.3
20260901110924 67 235 0.0 0.0 0.00 0.00 0.00 99 1019.3